• In Czech Republic
  • List of Countries
  • For 7 days
  • Water Temperature
  • Satellite Maps
  • Weather Map
  • Weather Widgets
  • user-avatar
    Login

    Hourly Weather Tarim

    Today, 19 September, Wednesday

    Time Temperature Precipitation Wind Pressure Humidity
    00:00 +31°C° 0 mm 2 mps 705 mmHg 38%
    01:00 +31°C° 0 mm 2 mps 705 mmHg 40%
    02:00 +30°C° 0 mm 1 mps 705 mmHg 43%
    03:00 +29°C° 0 mm 1 mps 705 mmHg 45%
    04:00 +29°C° 0 mm 1 mps 705 mmHg 46%
    05:00 +29°C° 0 mm 1 mps 705 mmHg 47%
    06:00 +28°C° 0 mm 1 mps 705 mmHg 47%
    07:00 +30°C° 0 mm 2 mps 705 mmHg 41%
    08:00 +32°C° 0 mm 2 mps 706 mmHg 34%
    09:00 +35°C° 0 mm 2 mps 706 mmHg 27%
    10:00 +37°C° 0 mm 2 mps 706 mmHg 22%
    11:00 +39°C° 0 mm 3 mps 706 mmHg 18%
    12:00 +40°C° 0 mm 3 mps 705 mmHg 13%
    13:00 +42°C° 0 mm 4 mps 705 mmHg 12%
    14:00 +42°C° 0 mm 4 mps 704 mmHg 10%
    15:00 +42°C° 0 mm 5 mps 704 mmHg 9%
    16:00 +41°C° 0 mm 5 mps 704 mmHg 10%
    17:00 +41°C° 0 mm 4 mps 703 mmHg 11%
    18:00 +40°C° 0 mm 4 mps 703 mmHg 11%
    19:00 +37°C° 0 mm 4 mps 704 mmHg 13%
    20:00 +36°C° 0 mm 3 mps 704 mmHg 15%
    21:00 +35°C° 0 mm 3 mps 704 mmHg 17%
    22:00 +34°C° 0 mm 3 mps 704 mmHg 20%
    23:00 +32°C° 0 mm 2 mps 704 mmHg 23%

    Tomorrow, 20 September, Thursday

    Time Temperature Precipitation Wind Pressure Humidity
    00:00 +31°C° 0 mm 2 mps 704 mmHg 26%
    01:00 +31°C° 0 mm 2 mps 704 mmHg 30%
    02:00 +30°C° 0 mm 1 mps 704 mmHg 33%
    03:00 +29°C° 0 mm 1 mps 704 mmHg 37%
    04:00 +29°C° 0 mm 1 mps 704 mmHg 40%
    05:00 +29°C° 0 mm 1 mps 705 mmHg 42%
    06:00 +28°C° 0 mm 1 mps 705 mmHg 45%
    07:00 +30°C° 0 mm 1 mps 705 mmHg 39%
    08:00 +32°C° 0 mm 2 mps 706 mmHg 33%
    09:00 +35°C° 0 mm 2 mps 706 mmHg 28%
    10:00 +37°C° 0 mm 4 mps 706 mmHg 22%
    11:00 +39°C° 0 mm 5 mps 706 mmHg 17%
    12:00 +41°C° 0 mm 6 mps 706 mmHg 11%
    13:00 +42°C° 0 mm 6 mps 705 mmHg 11%
    14:00 +42°C° 0 mm 6 mps 704 mmHg 10%
    15:00 +42°C° 0 mm 6 mps 704 mmHg 10%
    16:00 +41°C° 0 mm 5 mps 703 mmHg 10%
    17:00 +40°C° 0 mm 5 mps 703 mmHg 11%
    18:00 +38°C° 0 mm 4 mps 703 mmHg 12%
    19:00 +37°C° 0 mm 4 mps 704 mmHg 14%
    20:00 +36°C° 0 mm 3 mps 704 mmHg 15%
    21:00 +35°C° 0 mm 3 mps 705 mmHg 17%
    22:00 +34°C° 0 mm 3 mps 704 mmHg 21%
    23:00 +32°C° 0 mm 2 mps 704 mmHg 24%

    Day after tomorrow, 21 September, Friday

    Time Temperature Precipitation Wind Pressure Humidity
    00:00 +31°C° 0 mm 1 mps 704 mmHg 27%
    01:00 +30°C° 0 mm 1 mps 704 mmHg 30%
    02:00 +30°C° 0 mm 1 mps 704 mmHg 34%
    03:00 +29°C° 0 mm 1 mps 703 mmHg 37%
    04:00 +29°C° 0 mm 1 mps 704 mmHg 38%
    05:00 +28°C° 0 mm 1 mps 704 mmHg 40%
    06:00 +28°C° 0 mm 1 mps 704 mmHg 42%
    07:00 +30°C° 0 mm 1 mps 705 mmHg 36%
    08:00 +32°C° 0 mm 1 mps 705 mmHg 31%
    09:00 +35°C° 0 mm 2 mps 706 mmHg 25%
    10:00 +37°C° 0 mm 3 mps 706 mmHg 22%
    11:00 +38°C° 0 mm 4 mps 705 mmHg 18%
    12:00 +41°C° 0 mm 5 mps 705 mmHg 14%
    13:00 +41°C° 0 mm 5 mps 704 mmHg 13%
    14:00 +42°C° 0 mm 6 mps 704 mmHg 12%
    15:00 +42°C° 0 mm 6 mps 703 mmHg 11%
    16:00 +41°C° 0 mm 5 mps 703 mmHg 11%
    17:00 +40°C° 0 mm 5 mps 703 mmHg 12%
    18:00 +38°C° 0 mm 4 mps 704 mmHg 12%
    19:00 +37°C° 0 mm 4 mps 704 mmHg 14%
    20:00 +36°C° 0 mm 4 mps 705 mmHg 17%
    21:00 +35°C° 0 mm 4 mps 705 mmHg 19%
    22:00 +34°C° 0 mm 3 mps 705 mmHg 24%
    23:00 +33°C° 0 mm 3 mps 705 mmHg 28%

    22 September, Saturday

    Time Temperature Precipitation Wind Pressure Humidity
    00:00 +31°C° 0 mm 2 mps 705 mmHg 33%
    01:00 +30°C° 0 mm 2 mps 704 mmHg 36%
    02:00 +29°C° 0 mm 2 mps 704 mmHg 39%
    03:00 +28°C° 0 mm 1 mps 704 mmHg 42%
    04:00 +28°C° 0 mm 1 mps 704 mmHg 44%
    05:00 +28°C° 0 mm 1 mps 705 mmHg 46%
    06:00 +27°C° 0 mm 1 mps 705 mmHg 48%
    07:00 +29°C° 0 mm 2 mps 706 mmHg 39%
    08:00 +31°C° 0 mm 2 mps 706 mmHg 31%
    09:00 +34°C° 0 mm 3 mps 707 mmHg 22%
    10:00 +36°C° 0 mm 4 mps 707 mmHg 18%
    11:00 +37°C° 0 mm 5 mps 706 mmHg 15%
    12:00 +40°C° 0 mm 7 mps 706 mmHg 11%
    13:00 +41°C° 0 mm 7 mps 705 mmHg 11%
    14:00 +41°C° 0 mm 7 mps 705 mmHg 10%
    15:00 +41°C° 0 mm 8 mps 704 mmHg 10%
    16:00 +40°C° 0 mm 6 mps 704 mmHg 11%
    17:00 +39°C° 0 mm 5 mps 704 mmHg 12%
    18:00 +37°C° 0 mm 4 mps 705 mmHg 13%
    19:00 +36°C° 0 mm 3 mps 705 mmHg 14%
    20:00 +35°C° 0 mm 3 mps 705 mmHg 16%
    21:00 +34°C° 0 mm 2 mps 706 mmHg 17%
    22:00 +32°C° 0 mm 2 mps 706 mmHg 19%
    23:00 +31°C° 0 mm 2 mps 705 mmHg 20%

    23 September, Sunday

    Time Temperature Precipitation Wind Pressure Humidity
    00:00 +30°C° 0 mm 1 mps 705 mmHg 22%
    01:00 +30°C° 0 mm 1 mps 705 mmHg 24%
    02:00 +29°C° 0 mm 1 mps 705 mmHg 26%
    03:00 +28°C° 0 mm 1 mps 704 mmHg 28%
    04:00 +28°C° 0 mm 1 mps 705 mmHg 30%
    05:00 +25°C° 0 mm 0 mps 705 mmHg 31%
    06:00 +25°C° 0 mm 0 mps 706 mmHg 33%
    07:00 +29°C° 0 mm 1 mps 706 mmHg 29%
    08:00 +31°C° 0 mm 1 mps 707 mmHg 26%
    09:00 +33°C° 0 mm 1 mps 707 mmHg 22%
    10:00 +36°C° 0 mm 2 mps 706 mmHg 19%
    11:00 +38°C° 0 mm 3 mps 706 mmHg 15%
    12:00 +41°C° 0 mm 5 mps 705 mmHg 12%
    13:00 +41°C° 0 mm 5 mps 705 mmHg 12%
    14:00 +42°C° 0 mm 6 mps 704 mmHg 11%
    15:00 +42°C° 0 mm 6 mps 704 mmHg 11%
    16:00 +41°C° 0 mm 5 mps 704 mmHg 11%
    17:00 +40°C° 0 mm 5 mps 704 mmHg 12%
    18:00 +38°C° 0 mm 4 mps 704 mmHg 13%
    19:00 +37°C° 0 mm 3 mps 704 mmHg 14%
    20:00 +36°C° 0 mm 3 mps 705 mmHg 16%
    21:00 +35°C° 0 mm 3 mps 705 mmHg 17%
    22:00 +34°C° 0 mm 3 mps 705 mmHg 20%
    23:00 +32°C° 0 mm 2 mps 704 mmHg 23%

    24 September, Monday

    Time Temperature Precipitation Wind Pressure Humidity
    00:00 +31°C° 0 mm 2 mps 704 mmHg 26%
    01:00 +30°C° 0 mm 2 mps 704 mmHg 30%
    02:00 +30°C° 0 mm 2 mps 704 mmHg 35%
    03:00 +29°C° 0 mm 2 mps 704 mmHg 40%
    04:00 +28°C° 0 mm 2 mps 704 mmHg 43%
    05:00 +28°C° 0 mm 2 mps 705 mmHg 47%
    06:00 +27°C° 0 mm 1 mps 705 mmHg 51%
    07:00 +29°C° 0 mm 1 mps 705 mmHg 45%
    08:00 +31°C° 0 mm 2 mps 706 mmHg 40%
    09:00 +34°C° 0 mm 2 mps 706 mmHg 34%
    10:00 +36°C° 0 mm 3 mps 706 mmHg 27%
    11:00 +39°C° 0 mm 5 mps 705 mmHg 21%
    12:00 +41°C° 0 mm 7 mps 705 mmHg 14%
    13:00 +41°C° 0 mm 8 mps 704 mmHg 13%
    14:00 +43°C° 0 mm 8 mps 703 mmHg 12%
    15:00 +43°C° 0 mm 9 mps 703 mmHg 11%
    16:00 +41°C° 0 mm 8 mps 703 mmHg 12%
    17:00 +40°C° 0 mm 7 mps 703 mmHg 13%
    18:00 +38°C° 0 mm 6 mps 704 mmHg 15%
    19:00 +36°C° 0 mm 6 mps 704 mmHg 20%
    20:00 +34°C° 0 mm 5 mps 704 mmHg 26%
    21:00 +33°C° 0 mm 5 mps 705 mmHg 32%
    22:00 +32°C° 0 mm 4 mps 705 mmHg 38%
    23:00 +30°C° 0 mm 3 mps 704 mmHg 45%
    Show more